Torna al catalogo

SL-16 DEB

AttivoLEO
NORAD 22222·DEBRIS·🇷🇺 Russia

Lanciato Nov 17, 1992 da Baikonur Cosmodrome

Loading…

Prossimi Passaggi (prossime 24 ore)

TLE

AggiornatoSource: Space-Track

Epoca: Sep 14, 2026, 02:02 UTC

1 22222U 92076D   26257.08537575  .00000088  00000-0  12507-3 0  9990
2 22222  70.9954 282.5641 0217228 307.5435  50.6099 13.70738317690861

Traccia SL-16 DEB in tempo reale con AllMySat

Download on the App Store